Overview Statistics Trail Chart Weather Telemetry Raw packets
 

This is the latest recevied weather packets stored in our database for station/object N9DMT-13. If no packets are shown the sender has not sent any weather packets the latest 10 day(s).

<< 6 7 8 9 10 11 12 >>
Time Temp. Humidity Pressure Rain* Wind** Luminosity Snow
1777818575 16.11° C 49% 975.9 hPa 0 mm - - -
1777818274 15.56° C 52% 976.2 hPa 0 mm - - -
1777817973 15.56° C 52% 976.2 hPa 0 mm - - -
1777817672 15° C 53% 976.2 hPa 0 mm - - -
1777817372 14.44° C 56% 976.3 hPa 0 mm - - -
1777817071 14.44° C 55% 976.3 hPa 0 mm - - -
1777816771 14.44° C 56% 976.3 hPa 0 mm - - -
1777816470 13.89° C 56% 976.3 hPa 0 mm - - -
1777816169 14.44° C 54% 976.3 hPa 0 mm - - -
1777815868 13.89° C 56% 976.4 hPa 0 mm - - -
1777815567 13.33° C 56% 976.5 hPa 0 mm - - -
1777815267 12.78° C 58% 976.3 hPa 0 mm - - -
1777814966 12.22° C 59% 976.4 hPa 0 mm - - -
1777814665 12.78° C 59% 976.6 hPa 0 mm - - -
1777814364 12.22° C 59% 976.6 hPa 0 mm - - -
1777814063 12.22° C 60% 976.7 hPa 0 mm - - -
1777813763 12.22° C 61% 976.8 hPa 0 mm - - -
1777813475 11.67° C 61% 976.9 hPa 0 mm - - -
1777813161 11.67° C 62% 977 hPa 0 mm - - -
1777812861 11.67° C 64% 977.1 hPa 0 mm - - -
1777812560 11.67° C 63% 977 hPa 0 mm - - -
1777812259 11.67° C 64% 977.1 hPa 0 mm - - -
1777811959 11.67° C 62% 977 hPa 0 mm - - -
1777811658 12.22° C 62% 976.9 hPa 0 mm - - -
1777811357 12.22° C 62% 977.1 hPa 0 mm - - -

* Rain latest hour (hover to see other rain measurements)
** Current wind speed in m/s (hover to see current wind gust speed)